Year,Month,Day,Hour,Minute,Value (Times are PST for temperature in C)
2014,07,03,00,00,15.20
2014,07,03,00,01,15.20
2014,07,03,00,02,15.20
2014,07,03,00,03,15.20
2014,07,03,00,04,15.20
2014,07,03,00,05,15.10
2014,07,03,00,06,15.10
2014,07,03,00,07,15.10
2014,07,03,00,08,15.10
2014,07,03,00,09,15.10
2014,07,03,00,10,15.00
2014,07,03,00,11,15.00
2014,07,03,00,12,15.00
2014,07,03,00,13,15.00
2014,07,03,00,14,14.90
2014,07,03,00,15,14.90
2014,07,03,00,16,14.90
2014,07,03,00,17,14.80
2014,07,03,00,18,14.80
2014,07,03,00,19,14.80
2014,07,03,00,20,14.80
2014,07,03,00,21,14.80
2014,07,03,00,22,14.70
2014,07,03,00,23,14.70
2014,07,03,00,24,14.70
2014,07,03,00,25,14.70
2014,07,03,00,26,14.60
2014,07,03,00,27,14.60
2014,07,03,00,28,14.60
2014,07,03,00,29,14.60
2014,07,03,00,30,14.50
2014,07,03,00,31,14.50
2014,07,03,00,32,14.50
2014,07,03,00,33,14.40
2014,07,03,00,34,14.40
2014,07,03,00,35,14.40
2014,07,03,00,36,14.40
2014,07,03,00,37,14.30
2014,07,03,00,38,14.30
2014,07,03,00,39,14.30
2014,07,03,00,40,14.30
2014,07,03,00,41,14.30
2014,07,03,00,42,14.30
2014,07,03,00,43,14.20
2014,07,03,00,44,14.20
2014,07,03,00,45,14.20
2014,07,03,00,46,14.20
2014,07,03,00,47,14.20
2014,07,03,00,48,14.10
2014,07,03,00,49,14.10
2014,07,03,00,50,14.10
2014,07,03,00,51,14.10
2014,07,03,00,52,14.00
2014,07,03,00,53,14.00
2014,07,03,00,54,14.00
2014,07,03,00,55,14.00
2014,07,03,00,56,14.00
2014,07,03,00,57,13.90
2014,07,03,00,58,13.90
2014,07,03,00,59,13.90
2014,07,03,01,00,13.90
2014,07,03,01,01,13.90
2014,07,03,01,02,13.80
2014,07,03,01,03,13.80
2014,07,03,01,04,13.80
2014,07,03,01,05,13.80
2014,07,03,01,06,13.80
2014,07,03,01,07,13.80
2014,07,03,01,08,13.70
2014,07,03,01,09,13.70
2014,07,03,01,10,13.70
2014,07,03,01,11,13.70
2014,07,03,01,12,13.60
2014,07,03,01,13,13.60
2014,07,03,01,14,13.60
2014,07,03,01,15,13.60
2014,07,03,01,16,13.60
2014,07,03,01,17,13.60
2014,07,03,01,18,13.60
2014,07,03,01,19,13.60
2014,07,03,01,20,13.50
2014,07,03,01,21,13.50
2014,07,03,01,22,13.50
2014,07,03,01,23,13.50
2014,07,03,01,24,13.40
2014,07,03,01,25,13.40
2014,07,03,01,26,13.40
2014,07,03,01,27,13.40
2014,07,03,01,28,13.40
2014,07,03,01,29,13.40
2014,07,03,01,30,13.30
2014,07,03,01,31,13.30
2014,07,03,01,32,13.30
2014,07,03,01,33,13.30
2014,07,03,01,34,13.30
2014,07,03,01,35,13.30
2014,07,03,01,36,13.30
2014,07,03,01,37,13.30
2014,07,03,01,38,13.30
2014,07,03,01,39,13.30
2014,07,03,01,40,13.30
2014,07,03,01,41,13.30
2014,07,03,01,42,13.20
2014,07,03,01,43,13.20
2014,07,03,01,44,13.20
2014,07,03,01,45,13.20
2014,07,03,01,46,13.20
2014,07,03,01,47,13.20
2014,07,03,01,48,13.20
2014,07,03,01,49,13.20
2014,07,03,01,50,13.20
2014,07,03,01,51,13.20
2014,07,03,01,52,13.20
2014,07,03,01,53,13.20
2014,07,03,01,54,13.20
2014,07,03,01,55,13.10
2014,07,03,01,56,13.10
2014,07,03,01,57,13.10
2014,07,03,01,58,13.10
2014,07,03,01,59,13.10
2014,07,03,02,00,13.10
2014,07,03,02,01,13.10
2014,07,03,02,02,13.10
2014,07,03,02,03,13.10
2014,07,03,02,04,13.10
2014,07,03,02,05,13.10
2014,07,03,02,06,13.10
2014,07,03,02,07,13.10
2014,07,03,02,08,13.00
2014,07,03,02,09,13.00
2014,07,03,02,10,13.00
2014,07,03,02,11,13.00
2014,07,03,02,12,13.00
2014,07,03,02,13,13.00
2014,07,03,02,14,12.90
2014,07,03,02,15,12.90
2014,07,03,02,16,12.90
2014,07,03,02,17,12.90
2014,07,03,02,18,12.90
2014,07,03,02,19,12.90
2014,07,03,02,20,12.90
2014,07,03,02,21,12.90
2014,07,03,02,22,12.90
2014,07,03,02,23,12.90
2014,07,03,02,24,12.90
2014,07,03,02,25,12.90
2014,07,03,02,26,12.90
2014,07,03,02,27,12.90
2014,07,03,02,28,12.90
2014,07,03,02,29,12.90
2014,07,03,02,30,12.90
2014,07,03,02,31,12.90
2014,07,03,02,32,12.90
2014,07,03,02,33,12.90
2014,07,03,02,34,12.90
2014,07,03,02,35,12.80
2014,07,03,02,36,12.80
2014,07,03,02,37,12.80
2014,07,03,02,38,12.80
2014,07,03,02,39,12.80
2014,07,03,02,40,12.80
2014,07,03,02,41,12.80
2014,07,03,02,42,12.80
2014,07,03,02,43,12.80
2014,07,03,02,44,12.80
2014,07,03,02,45,12.70
2014,07,03,02,46,12.70
2014,07,03,02,47,12.70
2014,07,03,02,48,12.70
2014,07,03,02,49,12.70
2014,07,03,02,50,12.70
2014,07,03,02,51,12.70
2014,07,03,02,52,12.70
2014,07,03,02,53,12.70
2014,07,03,02,54,12.60
2014,07,03,02,55,12.60
2014,07,03,02,56,12.60
2014,07,03,02,57,12.60
2014,07,03,02,58,12.60
2014,07,03,02,59,12.60
2014,07,03,03,00,12.60
2014,07,03,03,01,12.60
2014,07,03,03,02,12.60
2014,07,03,03,03,12.50
2014,07,03,03,04,12.50
2014,07,03,03,05,12.50
2014,07,03,03,06,12.50
2014,07,03,03,07,12.50
2014,07,03,03,08,12.50
2014,07,03,03,09,12.50
2014,07,03,03,10,12.50
2014,07,03,03,11,12.50
2014,07,03,03,12,12.50
2014,07,03,03,13,12.50
2014,07,03,03,14,12.50
2014,07,03,03,15,12.50
2014,07,03,03,16,12.50
2014,07,03,03,17,12.50
2014,07,03,03,18,12.50
2014,07,03,03,19,12.50
2014,07,03,03,20,12.50
2014,07,03,03,21,12.60
2014,07,03,03,22,12.60
2014,07,03,03,23,12.60
2014,07,03,03,24,12.60
2014,07,03,03,25,12.60
2014,07,03,03,26,12.60
2014,07,03,03,27,12.60
2014,07,03,03,28,12.60
2014,07,03,03,29,12.70
2014,07,03,03,30,12.70
2014,07,03,03,31,12.70
2014,07,03,03,32,12.70
2014,07,03,03,33,12.70
2014,07,03,03,34,12.70
2014,07,03,03,35,12.70
2014,07,03,03,36,12.70
2014,07,03,03,37,12.70
2014,07,03,03,38,12.70
2014,07,03,03,39,12.70
2014,07,03,03,40,12.70
2014,07,03,03,41,12.70
2014,07,03,03,42,12.80
2014,07,03,03,43,12.80
2014,07,03,03,44,12.80
2014,07,03,03,45,12.80
2014,07,03,03,46,12.80
2014,07,03,03,47,12.80
2014,07,03,03,48,12.80
2014,07,03,03,49,12.80
2014,07,03,03,50,12.80
2014,07,03,03,51,12.80
2014,07,03,03,52,12.80
2014,07,03,03,53,12.80
2014,07,03,03,54,12.80
2014,07,03,03,55,12.80
2014,07,03,03,56,12.70
2014,07,03,03,57,12.70
2014,07,03,03,58,12.70
2014,07,03,03,59,12.70
2014,07,03,04,00,12.70
2014,07,03,04,01,12.70
2014,07,03,04,02,12.70
2014,07,03,04,03,12.70
2014,07,03,04,04,12.70
2014,07,03,04,05,12.70
2014,07,03,04,06,12.70
2014,07,03,04,07,12.70
2014,07,03,04,08,12.70
2014,07,03,04,09,12.70
2014,07,03,04,10,12.70
2014,07,03,04,11,12.70
2014,07,03,04,12,12.70
2014,07,03,04,13,12.70
2014,07,03,04,14,12.70
2014,07,03,04,15,12.70
2014,07,03,04,16,12.70
2014,07,03,04,17,12.70
2014,07,03,04,18,12.70
2014,07,03,04,19,12.70
2014,07,03,04,20,12.60
2014,07,03,04,21,12.60
2014,07,03,04,22,12.60
2014,07,03,04,23,12.60
2014,07,03,04,24,12.60
2014,07,03,04,25,12.60
2014,07,03,04,26,12.60
2014,07,03,04,27,12.50
2014,07,03,04,28,12.50
2014,07,03,04,29,12.50
2014,07,03,04,30,12.50
2014,07,03,04,31,12.50
2014,07,03,04,32,12.40
2014,07,03,04,33,12.40
2014,07,03,04,34,12.40
2014,07,03,04,35,12.40
2014,07,03,04,36,12.30
2014,07,03,04,37,12.30
2014,07,03,04,38,12.30
2014,07,03,04,39,12.30
2014,07,03,04,40,12.30
2014,07,03,04,41,12.30
2014,07,03,04,42,12.30
2014,07,03,04,43,12.30
2014,07,03,04,44,12.30
2014,07,03,04,45,12.20
2014,07,03,04,46,12.20
2014,07,03,04,47,12.20
2014,07,03,04,48,12.20
2014,07,03,04,49,12.20
2014,07,03,04,50,12.20
2014,07,03,04,51,12.20
2014,07,03,04,52,12.20
2014,07,03,04,53,12.20
2014,07,03,04,54,12.20
2014,07,03,04,55,12.30
2014,07,03,04,56,12.30
2014,07,03,04,57,12.30
2014,07,03,04,58,12.30
2014,07,03,04,59,12.30
2014,07,03,05,00,12.30
2014,07,03,05,01,12.30
2014,07,03,05,02,12.30
2014,07,03,05,03,12.30
2014,07,03,05,04,12.30
2014,07,03,05,05,12.30
2014,07,03,05,06,12.30
2014,07,03,05,07,12.30
2014,07,03,05,08,12.40
2014,07,03,05,09,12.40
2014,07,03,05,10,12.40
2014,07,03,05,11,12.40
2014,07,03,05,12,12.40
2014,07,03,05,13,12.40
2014,07,03,05,14,12.40
2014,07,03,05,15,12.40
2014,07,03,05,16,12.40
2014,07,03,05,17,12.40
2014,07,03,05,18,12.40
2014,07,03,05,19,12.50
2014,07,03,05,20,12.50
2014,07,03,05,21,12.50
2014,07,03,05,22,12.50
2014,07,03,05,23,12.60
2014,07,03,05,24,12.60
2014,07,03,05,25,12.60
2014,07,03,05,26,12.60
2014,07,03,05,27,12.60
2014,07,03,05,28,12.70
2014,07,03,05,29,12.70
2014,07,03,05,30,12.70
2014,07,03,05,31,12.70
2014,07,03,05,32,12.70
2014,07,03,05,33,12.80
2014,07,03,05,34,12.80
2014,07,03,05,35,12.80
2014,07,03,05,36,12.80
2014,07,03,05,37,12.80
2014,07,03,05,38,12.80
2014,07,03,05,39,12.80
2014,07,03,05,40,12.80
2014,07,03,05,41,12.90
2014,07,03,05,42,12.90
2014,07,03,05,43,12.90
2014,07,03,05,44,12.90
2014,07,03,05,45,12.90
2014,07,03,05,46,12.90
2014,07,03,05,47,12.90
2014,07,03,05,48,12.90
2014,07,03,05,49,12.90
2014,07,03,05,50,13.00
2014,07,03,05,51,13.00
2014,07,03,05,52,13.00
2014,07,03,05,53,13.00
2014,07,03,05,54,13.10
2014,07,03,05,55,13.10
2014,07,03,05,56,13.10
2014,07,03,05,57,13.10
2014,07,03,05,58,13.10
2014,07,03,05,59,13.10
2014,07,03,06,00,13.20
2014,07,03,06,01,13.20
2014,07,03,06,02,13.20
2014,07,03,06,03,13.20
2014,07,03,06,04,13.20
2014,07,03,06,05,13.20
2014,07,03,06,06,13.20
2014,07,03,06,07,13.20
2014,07,03,06,08,13.20
2014,07,03,06,09,13.30
2014,07,03,06,10,13.30
2014,07,03,06,11,13.30
2014,07,03,06,12,13.30
2014,07,03,06,13,13.30
2014,07,03,06,14,13.30
2014,07,03,06,15,13.30
2014,07,03,06,16,13.30
2014,07,03,06,17,13.30
2014,07,03,06,18,13.30
2014,07,03,06,19,13.30
2014,07,03,06,20,13.30
2014,07,03,06,21,13.30
2014,07,03,06,22,13.30
2014,07,03,06,23,13.30
2014,07,03,06,24,13.30
2014,07,03,06,25,13.40
2014,07,03,06,26,13.40
2014,07,03,06,27,13.40
2014,07,03,06,28,13.40
2014,07,03,06,29,13.50
2014,07,03,06,30,13.50
2014,07,03,06,31,13.50
2014,07,03,06,32,13.50
2014,07,03,06,33,13.60
2014,07,03,06,34,13.60
2014,07,03,06,35,13.60
2014,07,03,06,36,13.60
2014,07,03,06,37,13.70
2014,07,03,06,38,13.70
2014,07,03,06,39,13.70
2014,07,03,06,40,13.70
2014,07,03,06,41,13.70
2014,07,03,06,42,13.70
2014,07,03,06,43,13.80
2014,07,03,06,44,13.80
2014,07,03,06,45,13.80
2014,07,03,06,46,13.80
2014,07,03,06,47,13.80
2014,07,03,06,48,13.80
2014,07,03,06,49,13.80
2014,07,03,06,50,13.90
2014,07,03,06,51,13.90
2014,07,03,06,52,13.90
2014,07,03,06,53,13.90
2014,07,03,06,54,13.90
2014,07,03,06,55,14.00
2014,07,03,06,56,14.00
2014,07,03,06,57,14.10
2014,07,03,06,58,14.10
2014,07,03,06,59,14.10
2014,07,03,07,00,14.10
2014,07,03,07,01,14.20
2014,07,03,07,02,14.20
2014,07,03,07,03,14.20
2014,07,03,07,04,14.30
2014,07,03,07,05,14.30
2014,07,03,07,06,14.30
2014,07,03,07,07,14.40
2014,07,03,07,08,14.40
2014,07,03,07,09,14.40
2014,07,03,07,10,14.50
2014,07,03,07,11,14.50
2014,07,03,07,12,14.60
2014,07,03,07,13,14.60
2014,07,03,07,14,14.70
2014,07,03,07,15,14.70
2014,07,03,07,16,14.70
2014,07,03,07,17,14.70
2014,07,03,07,18,14.80
2014,07,03,07,19,14.80
2014,07,03,07,20,14.80
2014,07,03,07,21,14.90
2014,07,03,07,22,14.90
2014,07,03,07,23,15.00
2014,07,03,07,24,15.00
2014,07,03,07,25,15.00
2014,07,03,07,26,15.10
2014,07,03,07,27,15.10
2014,07,03,07,28,15.10
2014,07,03,07,29,15.20
2014,07,03,07,30,15.20
2014,07,03,07,31,15.20
2014,07,03,07,32,15.20
2014,07,03,07,33,15.30
2014,07,03,07,34,15.30
2014,07,03,07,35,15.40
2014,07,03,07,36,15.40
2014,07,03,07,37,15.50
2014,07,03,07,38,15.50
2014,07,03,07,39,15.60
2014,07,03,07,40,15.60
2014,07,03,07,41,15.60
2014,07,03,07,42,15.70
2014,07,03,07,43,15.70
2014,07,03,07,44,15.80
2014,07,03,07,45,15.80
2014,07,03,07,46,15.80
2014,07,03,07,47,15.90
2014,07,03,07,48,15.90
2014,07,03,07,49,16.00
2014,07,03,07,50,16.10
2014,07,03,07,51,16.10
2014,07,03,07,52,16.10
2014,07,03,07,53,16.20
2014,07,03,07,54,16.20
2014,07,03,07,55,16.20
2014,07,03,07,56,16.30
2014,07,03,07,57,16.30
2014,07,03,07,58,16.30
2014,07,03,07,59,16.40
2014,07,03,08,00,16.40
2014,07,03,08,01,16.40
2014,07,03,08,02,16.50
2014,07,03,08,03,16.50
2014,07,03,08,04,16.60
2014,07,03,08,05,16.60
2014,07,03,08,06,16.60
2014,07,03,08,07,16.70
2014,07,03,08,08,16.70
2014,07,03,08,09,16.70
2014,07,03,08,10,16.70
2014,07,03,08,11,16.70
2014,07,03,08,12,16.80
2014,07,03,08,13,16.80
2014,07,03,08,14,16.80
2014,07,03,08,15,16.80
2014,07,03,08,16,16.90
2014,07,03,08,17,16.90
2014,07,03,08,18,16.90
2014,07,03,08,19,17.00
2014,07,03,08,20,17.10
2014,07,03,08,21,17.10
2014,07,03,08,22,17.20
2014,07,03,08,23,17.30
2014,07,03,08,24,17.30
2014,07,03,08,25,17.40
2014,07,03,08,26,17.40
2014,07,03,08,27,17.50
2014,07,03,08,28,17.60
2014,07,03,08,29,17.60
2014,07,03,08,30,17.70
2014,07,03,08,31,17.80
2014,07,03,08,32,17.90
2014,07,03,08,33,18.00
2014,07,03,08,34,18.00
2014,07,03,08,35,18.10
2014,07,03,08,36,18.10
2014,07,03,08,37,18.10
2014,07,03,08,38,18.20
2014,07,03,08,39,18.20
2014,07,03,08,40,18.30
2014,07,03,08,41,18.40
2014,07,03,08,42,18.50
2014,07,03,08,43,18.60
2014,07,03,08,44,18.70
2014,07,03,08,45,18.70
2014,07,03,08,46,18.80
2014,07,03,08,47,18.80
2014,07,03,08,48,18.90
2014,07,03,08,49,19.00
2014,07,03,08,50,19.10
2014,07,03,08,51,19.20
2014,07,03,08,52,19.30
2014,07,03,08,53,19.30
2014,07,03,08,54,19.30
2014,07,03,08,55,19.30
2014,07,03,08,56,19.40
2014,07,03,08,57,19.50
2014,07,03,08,58,19.50
2014,07,03,08,59,19.50
2014,07,03,09,00,19.50
2014,07,03,09,01,19.40
2014,07,03,09,02,19.30
2014,07,03,09,03,19.20
2014,07,03,09,04,19.10
2014,07,03,09,05,19.10
2014,07,03,09,06,18.90
2014,07,03,09,07,18.90
2014,07,03,09,08,18.80
2014,07,03,09,09,18.80
2014,07,03,09,10,18.80
2014,07,03,09,11,18.70
2014,07,03,09,12,18.70
2014,07,03,09,13,18.70
2014,07,03,09,14,18.70
2014,07,03,09,15,18.70
2014,07,03,09,16,18.80
2014,07,03,09,17,18.70
2014,07,03,09,18,18.70
2014,07,03,09,19,18.70
2014,07,03,09,20,18.60
2014,07,03,09,21,18.50
2014,07,03,09,22,18.50
2014,07,03,09,23,18.40
2014,07,03,09,24,18.30
2014,07,03,09,25,18.30
2014,07,03,09,26,18.30
2014,07,03,09,27,18.40
2014,07,03,09,28,18.50
2014,07,03,09,29,18.60
2014,07,03,09,30,18.60
2014,07,03,09,31,18.80
2014,07,03,09,32,18.90
2014,07,03,09,33,19.00
2014,07,03,09,34,19.00
2014,07,03,09,35,19.10
2014,07,03,09,36,19.10
2014,07,03,09,37,19.10
2014,07,03,09,38,19.10
2014,07,03,09,39,19.10
2014,07,03,09,40,19.10
2014,07,03,09,41,19.10
2014,07,03,09,42,19.10
2014,07,03,09,43,19.20
2014,07,03,09,44,19.30
2014,07,03,09,45,19.40
2014,07,03,09,46,19.50
2014,07,03,09,47,19.60
2014,07,03,09,48,19.70
2014,07,03,09,49,19.80
2014,07,03,09,50,19.90
2014,07,03,09,51,20.00
2014,07,03,09,52,20.00
2014,07,03,09,53,20.10
2014,07,03,09,54,20.10
2014,07,03,09,55,20.20
2014,07,03,09,56,20.20
2014,07,03,09,57,20.20
2014,07,03,09,58,20.20
2014,07,03,09,59,20.30
2014,07,03,10,00,20.30
2014,07,03,10,01,20.50
2014,07,03,10,02,20.50
2014,07,03,10,03,20.60
2014,07,03,10,04,20.60
2014,07,03,10,05,20.60
2014,07,03,10,06,20.50
2014,07,03,10,07,20.50
2014,07,03,10,08,20.60
2014,07,03,10,09,20.60
2014,07,03,10,10,20.60
2014,07,03,10,11,20.60
2014,07,03,10,12,20.60
2014,07,03,10,13,20.60
2014,07,03,10,14,20.60
2014,07,03,10,15,20.50
2014,07,03,10,16,20.50
2014,07,03,10,17,20.50
2014,07,03,10,18,20.40
2014,07,03,10,19,20.40
2014,07,03,10,20,20.30
2014,07,03,10,21,20.30
2014,07,03,10,22,20.20
2014,07,03,10,23,20.10
2014,07,03,10,24,19.90
2014,07,03,10,25,19.80
2014,07,03,10,26,19.60
2014,07,03,10,27,19.50
2014,07,03,10,28,19.40
2014,07,03,10,29,19.40
2014,07,03,10,30,19.30
2014,07,03,10,31,19.20
2014,07,03,10,32,19.10
2014,07,03,10,33,19.00
2014,07,03,10,34,18.90
2014,07,03,10,35,18.90
2014,07,03,10,36,18.80
2014,07,03,10,37,18.80
2014,07,03,10,38,18.80
2014,07,03,10,39,18.80
2014,07,03,10,40,18.80
2014,07,03,10,41,18.70
2014,07,03,10,42,18.70
2014,07,03,10,43,18.70
2014,07,03,10,44,18.70
2014,07,03,10,45,18.70
2014,07,03,10,46,18.70
2014,07,03,10,47,18.80
2014,07,03,10,48,18.80
2014,07,03,10,49,18.90
2014,07,03,10,50,19.00
2014,07,03,10,51,19.20
2014,07,03,10,52,19.30
2014,07,03,10,53,19.40
2014,07,03,10,54,19.40
2014,07,03,10,55,19.50
2014,07,03,10,56,19.80
2014,07,03,10,57,19.80
2014,07,03,10,58,19.80
2014,07,03,10,59,19.90
2014,07,03,11,00,20.00
2014,07,03,11,01,20.00
2014,07,03,11,02,20.00
2014,07,03,11,03,20.00
2014,07,03,11,04,20.10
2014,07,03,11,05,20.10
2014,07,03,11,06,20.30
2014,07,03,11,07,20.40
2014,07,03,11,08,20.50
2014,07,03,11,09,20.60
2014,07,03,11,10,20.70
2014,07,03,11,11,20.70
2014,07,03,11,12,20.80
2014,07,03,11,13,20.80
2014,07,03,11,14,20.90
2014,07,03,11,15,21.00
2014,07,03,11,16,21.10
2014,07,03,11,17,21.20
2014,07,03,11,18,21.30
2014,07,03,11,19,21.40
2014,07,03,11,20,21.40
2014,07,03,11,21,21.40
2014,07,03,11,22,21.20
2014,07,03,11,23,21.10
2014,07,03,11,24,21.10
2014,07,03,11,25,21.00
2014,07,03,11,26,21.00
2014,07,03,11,27,21.10
2014,07,03,11,28,21.10
2014,07,03,11,29,21.10
2014,07,03,11,30,21.10
2014,07,03,11,31,21.10
2014,07,03,11,32,21.10
2014,07,03,11,33,21.10
2014,07,03,11,34,21.00
2014,07,03,11,35,20.80
2014,07,03,11,36,20.70
2014,07,03,11,37,20.60
2014,07,03,11,38,20.50
2014,07,03,11,39,20.40
2014,07,03,11,40,20.30
2014,07,03,11,41,20.20
2014,07,03,11,42,20.10
2014,07,03,11,43,20.00
2014,07,03,11,44,20.00
2014,07,03,11,45,20.00
2014,07,03,11,46,20.10
2014,07,03,11,47,20.10
2014,07,03,11,48,20.10
2014,07,03,11,49,20.10
2014,07,03,11,50,20.10
2014,07,03,11,51,20.00
2014,07,03,11,52,20.00
2014,07,03,11,53,20.00
2014,07,03,11,54,20.00
2014,07,03,11,55,20.00
2014,07,03,11,56,20.10
2014,07,03,11,57,20.10
2014,07,03,11,58,20.20
2014,07,03,11,59,20.20
2014,07,03,12,00,20.20
2014,07,03,12,01,20.20
2014,07,03,12,02,20.30
2014,07,03,12,03,20.40
2014,07,03,12,04,20.50
2014,07,03,12,05,20.50
2014,07,03,12,06,20.50
2014,07,03,12,07,20.50
2014,07,03,12,08,20.60
2014,07,03,12,09,20.70
2014,07,03,12,10,20.80
2014,07,03,12,11,20.80
2014,07,03,12,12,20.80
2014,07,03,12,13,20.70
2014,07,03,12,14,20.70
2014,07,03,12,15,20.70
2014,07,03,12,16,20.80
2014,07,03,12,17,20.90
2014,07,03,12,18,21.00
2014,07,03,12,19,21.10
2014,07,03,12,20,21.30
2014,07,03,12,21,21.30
2014,07,03,12,22,21.40
2014,07,03,12,23,21.50
2014,07,03,12,24,21.60
2014,07,03,12,25,21.70
2014,07,03,12,26,21.80
2014,07,03,12,27,21.80
2014,07,03,12,28,21.80
2014,07,03,12,29,21.80
2014,07,03,12,30,21.80
2014,07,03,12,31,21.70
2014,07,03,12,32,21.60
2014,07,03,12,33,21.60
2014,07,03,12,34,21.50
2014,07,03,12,35,21.40
2014,07,03,12,36,21.40
2014,07,03,12,37,21.40
2014,07,03,12,38,21.30
2014,07,03,12,39,21.20
2014,07,03,12,40,21.20
2014,07,03,12,41,21.30
2014,07,03,12,42,21.30
2014,07,03,12,43,21.40
2014,07,03,12,44,21.50
2014,07,03,12,45,21.60
2014,07,03,12,46,21.70
2014,07,03,12,47,21.70
2014,07,03,12,48,21.80
2014,07,03,12,49,21.70
2014,07,03,12,50,21.60
2014,07,03,12,51,21.60
2014,07,03,12,52,21.50
2014,07,03,12,53,21.40
2014,07,03,12,54,21.30
2014,07,03,12,55,21.20
2014,07,03,12,56,21.20
2014,07,03,12,57,21.20
2014,07,03,12,58,21.20
2014,07,03,12,59,21.20
2014,07,03,13,00,21.20
2014,07,03,13,01,21.20
2014,07,03,13,02,21.30
2014,07,03,13,03,21.30
2014,07,03,13,04,21.40
2014,07,03,13,05,21.50
2014,07,03,13,06,21.60
2014,07,03,13,07,21.70
2014,07,03,13,08,21.70
2014,07,03,13,09,21.80
2014,07,03,13,10,21.80
2014,07,03,13,11,21.80
2014,07,03,13,12,21.70
2014,07,03,13,13,21.70
2014,07,03,13,14,21.60
2014,07,03,13,15,21.50
2014,07,03,13,16,21.60
2014,07,03,13,17,21.50
2014,07,03,13,18,21.50
2014,07,03,13,19,21.50
2014,07,03,13,20,21.50
2014,07,03,13,21,21.40
2014,07,03,13,22,21.30
2014,07,03,13,23,21.20
2014,07,03,13,24,21.10
2014,07,03,13,25,21.00
2014,07,03,13,26,20.90
2014,07,03,13,27,20.80
2014,07,03,13,28,20.70
2014,07,03,13,29,20.60
2014,07,03,13,30,20.50
2014,07,03,13,31,20.60
2014,07,03,13,32,20.60
2014,07,03,13,33,20.50
2014,07,03,13,34,20.50
2014,07,03,13,35,20.40
2014,07,03,13,36,20.30
2014,07,03,13,37,20.30
2014,07,03,13,38,20.40
2014,07,03,13,39,20.40
2014,07,03,13,40,20.40
2014,07,03,13,41,20.40
2014,07,03,13,42,20.40
2014,07,03,13,43,20.50
2014,07,03,13,44,20.60
2014,07,03,13,45,20.70
2014,07,03,13,46,20.80
2014,07,03,13,47,20.90
2014,07,03,13,48,21.00
2014,07,03,13,49,21.00
2014,07,03,13,50,21.10
2014,07,03,13,51,21.10
2014,07,03,13,52,21.20
2014,07,03,13,53,21.20
2014,07,03,13,54,21.30
2014,07,03,13,55,21.30
2014,07,03,13,56,21.20
2014,07,03,13,57,21.20
2014,07,03,13,58,21.20
2014,07,03,13,59,21.20
2014,07,03,14,00,21.20
2014,07,03,14,01,21.30
2014,07,03,14,02,21.30
2014,07,03,14,03,21.30
2014,07,03,14,04,21.20
2014,07,03,14,05,21.20
2014,07,03,14,06,21.20
2014,07,03,14,07,21.20
2014,07,03,14,08,21.30
2014,07,03,14,09,21.30
2014,07,03,14,10,21.30
2014,07,03,14,11,21.30
2014,07,03,14,12,21.40
2014,07,03,14,13,21.50
2014,07,03,14,14,21.60
2014,07,03,14,15,21.70
2014,07,03,14,16,21.80
2014,07,03,14,17,21.90
2014,07,03,14,18,21.90
2014,07,03,14,19,22.00
2014,07,03,14,20,22.10
2014,07,03,14,21,22.20
2014,07,03,14,22,22.30
2014,07,03,14,23,22.40
2014,07,03,14,24,22.40
2014,07,03,14,25,22.40
2014,07,03,14,26,22.40
2014,07,03,14,27,22.40
2014,07,03,14,28,22.30
2014,07,03,14,29,22.20
2014,07,03,14,30,22.20
2014,07,03,14,31,22.30
2014,07,03,14,32,22.40
2014,07,03,14,33,22.40
2014,07,03,14,34,22.40
2014,07,03,14,35,22.40
2014,07,03,14,36,22.40
2014,07,03,14,37,22.40
2014,07,03,14,38,22.40
2014,07,03,14,39,22.30
2014,07,03,14,40,22.30
2014,07,03,14,41,22.30
2014,07,03,14,42,22.40
2014,07,03,14,43,22.40
2014,07,03,14,44,22.40
2014,07,03,14,45,22.40
2014,07,03,14,46,22.40
2014,07,03,14,47,22.30
2014,07,03,14,48,22.20
2014,07,03,14,49,22.10
2014,07,03,14,50,22.00
2014,07,03,14,51,22.00
2014,07,03,14,52,21.90
2014,07,03,14,53,21.90
2014,07,03,14,54,21.90
2014,07,03,14,55,21.80
2014,07,03,14,56,21.80
2014,07,03,14,57,21.80
2014,07,03,14,58,21.70
2014,07,03,14,59,21.70
2014,07,03,15,00,21.70
2014,07,03,15,01,21.60
2014,07,03,15,02,21.50
2014,07,03,15,03,21.50
2014,07,03,15,04,21.50
2014,07,03,15,05,21.50
2014,07,03,15,06,21.60
2014,07,03,15,07,21.80
2014,07,03,15,08,21.80
2014,07,03,15,09,21.90
2014,07,03,15,10,22.00
2014,07,03,15,11,22.10
2014,07,03,15,12,22.20
2014,07,03,15,13,22.10
2014,07,03,15,14,22.10
2014,07,03,15,15,22.00
2014,07,03,15,16,21.90
2014,07,03,15,17,21.90
2014,07,03,15,18,21.90
2014,07,03,15,19,21.90
2014,07,03,15,20,21.90
2014,07,03,15,21,22.00
2014,07,03,15,22,22.00
2014,07,03,15,23,22.10
2014,07,03,15,24,22.20
2014,07,03,15,25,22.30
2014,07,03,15,26,22.30
2014,07,03,15,27,22.40
2014,07,03,15,28,22.40
2014,07,03,15,29,22.40
2014,07,03,15,30,22.40
2014,07,03,15,31,22.30
2014,07,03,15,32,22.40
2014,07,03,15,33,22.50
2014,07,03,15,34,22.60
2014,07,03,15,35,22.80
2014,07,03,15,36,22.90
2014,07,03,15,37,23.00
2014,07,03,15,38,23.00
2014,07,03,15,39,22.90
2014,07,03,15,40,22.90
2014,07,03,15,41,22.80
2014,07,03,15,42,22.80
2014,07,03,15,43,22.70
2014,07,03,15,44,22.80
2014,07,03,15,45,22.80
2014,07,03,15,46,22.80
2014,07,03,15,47,22.60
2014,07,03,15,48,22.60
2014,07,03,15,49,22.60
2014,07,03,15,50,22.60
2014,07,03,15,51,22.60
2014,07,03,15,52,22.70
2014,07,03,15,53,22.70
2014,07,03,15,54,22.70
2014,07,03,15,55,22.70
2014,07,03,15,56,22.70
2014,07,03,15,57,22.70
2014,07,03,15,58,22.80
2014,07,03,15,59,22.80
2014,07,03,16,00,22.80
2014,07,03,16,01,22.80
2014,07,03,16,02,22.80
2014,07,03,16,03,22.70
2014,07,03,16,04,22.70
2014,07,03,16,05,22.70
2014,07,03,16,06,22.70
2014,07,03,16,07,22.70
2014,07,03,16,08,22.80
2014,07,03,16,09,22.80
2014,07,03,16,10,22.70
2014,07,03,16,11,22.60
2014,07,03,16,12,22.40
2014,07,03,16,13,22.30
2014,07,03,16,14,22.10
2014,07,03,16,15,22.00
2014,07,03,16,16,21.80
2014,07,03,16,17,21.80
2014,07,03,16,18,21.80
2014,07,03,16,19,21.80
2014,07,03,16,20,21.80
2014,07,03,16,21,21.80
2014,07,03,16,22,21.80
2014,07,03,16,23,21.90
2014,07,03,16,24,21.90
2014,07,03,16,25,21.90
2014,07,03,16,26,22.00
2014,07,03,16,27,21.90
2014,07,03,16,28,21.90
2014,07,03,16,29,21.90
2014,07,03,16,30,21.90
2014,07,03,16,31,21.90
2014,07,03,16,32,22.00
2014,07,03,16,33,22.10
2014,07,03,16,34,22.30
2014,07,03,16,35,22.40
2014,07,03,16,36,22.40
2014,07,03,16,37,22.50
2014,07,03,16,38,22.60
2014,07,03,16,39,22.60
2014,07,03,16,40,22.60
2014,07,03,16,41,22.60
2014,07,03,16,42,22.60
2014,07,03,16,43,22.60
2014,07,03,16,44,22.60
2014,07,03,16,45,22.70
2014,07,03,16,46,22.70
2014,07,03,16,47,22.80
2014,07,03,16,48,22.80
2014,07,03,16,49,22.80
2014,07,03,16,50,22.70
2014,07,03,16,51,22.70
2014,07,03,16,52,22.60
2014,07,03,16,53,22.60
2014,07,03,16,54,22.70
2014,07,03,16,55,22.70
2014,07,03,16,56,22.70
2014,07,03,16,57,22.80
2014,07,03,16,58,22.80
2014,07,03,16,59,22.80
2014,07,03,17,00,22.80
2014,07,03,17,01,22.80
2014,07,03,17,02,22.90
2014,07,03,17,03,22.90
2014,07,03,17,04,22.90
2014,07,03,17,05,22.90
2014,07,03,17,06,22.90
2014,07,03,17,07,22.80
2014,07,03,17,08,22.70
2014,07,03,17,09,22.60
2014,07,03,17,10,22.60
2014,07,03,17,11,22.60
2014,07,03,17,12,22.60
2014,07,03,17,13,22.60
2014,07,03,17,14,22.60
2014,07,03,17,15,22.60
2014,07,03,17,16,22.60
2014,07,03,17,17,22.60
2014,07,03,17,18,22.60
2014,07,03,17,19,22.70